Weather History for Mount Carmel, IL

Change the Weather History Date:

Thursday, February 21, 2013

  Actual Average (KLWV) Record (KLWV)
Temperature  
Mean Temperature 28 °F 37 °F  
Max Temperature 33 °F 46 °F 66 °F (2011)
Min Temperature 23 °F 28 °F 16 °F (2008)
Degree Days  
Heating Degree Days 37 28  
Month to date heating degree days 641  
Since 1 July heating degree days 3492  
Cooling Degree Days 0 0  
Month to date cooling degree days 0  
Year to date cooling degree days 0  
Moisture  
Dew Point 25 °F    
Average Humidity 83    
Maximum Humidity 100    
Minimum Humidity 64    
Precipitation  
Precipitation 0.17 in 0.07 in 0.66 in (1976)
Month to date precipitation 1.58  
Year to date precipitation 3.96  
Sea Level Pressure  
Sea Level Pressure 30.15 in    
Wind  
Wind Speed 9 mph (ENE)    
Max Wind Speed 22 mph    
Max Gust Speed 26 mph    
Visibility 8 miles    
Events Rain , Snow    
T = Trace of Precipitation, MM = Missing Value Source: NWS Daily Summary

Daily Weather History Graph

Daily Weather History Graph

Search for Another Location

Airport:

Trip Planner

Search our weather history database for the weather conditions in past years. The results will help you decide how hot, cold, wet, or windy it might be!

Date:

Astronomy

Feb. 21, 2013 Rise Set
Actual Time 6:33 AM CST 5:35 PM CST
Civil Twilight 6:06 AM CST 6:02 PM CST
Nautical Twilight 5:36 AM CST 6:33 PM CST
Astronomical Twilight 5:05 AM CST 7:04 PM CST
Moon 1:52 PM CST 3:36 AM CST
Length of Visible Light 11h 55m
Length of Day
11h 01m
Waxing Gibbous, 84% of the Moon is Illuminated
Feb 21
Waxing Gibbous
Feb 25
Full
Mar 4
Last Quarter
Mar 11
New
Mar 19
First Quarter

Hourly Weather History & Observations

Time (CST) Temp. Windchill Dew Point Humidity Pressure Visibility Wind Dir Wind Speed Gust Speed Precip Events Conditions
12:15 AM 26.6 °F - 19.4 °F 74% 30.33 in 10.0 mi Calm Calm - N/A   Clear
12:35 AM 24.8 °F 20.5 °F 19.4 °F 80% 30.32 in 10.0 mi NNE 3.5 mph - N/A   Clear
12:55 AM 24.8 °F - 19.4 °F 80% 30.32 in 10.0 mi Calm Calm - N/A   Clear
1:15 AM 24.8 °F 20.5 °F 19.4 °F 80% 30.33 in 10.0 mi NNE 3.5 mph - N/A   Clear
1:35 AM 24.8 °F 17.9 °F 19.4 °F 80% 30.32 in 10.0 mi NNE 5.8 mph - N/A   Clear
1:55 AM 24.8 °F 17.9 °F 19.4 °F 80% 30.32 in 10.0 mi NE 5.8 mph - N/A   Clear
2:15 AM 24.8 °F 17.9 °F 19.4 °F 80% 30.31 in 10.0 mi NE 5.8 mph - N/A   Clear
2:35 AM 24.8 °F 19.1 °F 19.4 °F 80% 30.32 in 10.0 mi NE 4.6 mph - N/A   Clear
2:55 AM 24.8 °F 19.1 °F 19.4 °F 80% 30.32 in 10.0 mi NNE 4.6 mph - N/A   Clear
3:15 AM 23.0 °F 15.8 °F 19.4 °F 86% 30.31 in 10.0 mi NE 5.8 mph - N/A   Clear
3:35 AM 24.8 °F 16.1 °F 19.4 °F 80% 30.31 in 10.0 mi NE 8.1 mph - N/A   Clear
3:55 AM 23.0 °F 17.0 °F 19.4 °F 86% 30.31 in 10.0 mi ENE 4.6 mph - N/A   Clear
4:15 AM 23.0 °F 14.7 °F 19.4 °F 86% 30.31 in 10.0 mi NE 6.9 mph - N/A   Clear
4:35 AM 23.0 °F 14.7 °F 19.4 °F 86% 30.31 in 10.0 mi NE 6.9 mph - N/A   Clear
4:55 AM 24.8 °F 16.9 °F 19.4 °F 80% 30.30 in 10.0 mi NE 6.9 mph - N/A   Clear
5:15 AM 23.0 °F 13.1 °F 19.4 °F 86% 30.31 in 10.0 mi ENE 9.2 mph - N/A   Clear
5:55 AM 23.0 °F 13.1 °F 19.4 °F 86% 30.31 in 10.0 mi East 9.2 mph - N/A   Clear
6:15 AM 23.0 °F 13.1 °F 19.4 °F 86% 30.31 in 10.0 mi ENE 9.2 mph - N/A   Clear
6:35 AM 23.0 °F 13.9 °F 19.4 °F 86% 30.31 in 10.0 mi East 8.1 mph - N/A   Clear
6:55 AM 24.8 °F 15.3 °F 19.4 °F 80% 30.31 in 10.0 mi East 9.2 mph - N/A   Clear
7:15 AM 24.8 °F 12.9 °F 19.4 °F 80% 30.29 in 10.0 mi ENE 13.8 mph 17.3 mph N/A   Clear
7:35 AM 26.6 °F 14.3 °F 19.4 °F 74% 30.29 in 10.0 mi East 16.1 mph - N/A   Clear
7:55 AM 26.6 °F 14.7 °F 19.4 °F 74% 30.29 in 10.0 mi East 15.0 mph - N/A   Clear
8:15 AM 26.6 °F 15.7 °F 19.4 °F 74% 30.32 in 10.0 mi East 12.7 mph 25.3 mph N/A   Clear
8:35 AM 28.4 °F 17.0 °F 21.2 °F 74% 30.30 in 10.0 mi East 15.0 mph - N/A   Clear
8:55 AM 28.4 °F 15.8 °F 19.4 °F 69% 30.29 in 10.0 mi East 18.4 mph - N/A   Clear
9:15 AM 28.4 °F 17.0 °F 19.4 °F 69% 30.28 in 10.0 mi ENE 15.0 mph - N/A   Clear
9:35 AM 30.2 °F 19.3 °F 21.2 °F 69% 30.28 in 10.0 mi ENE 15.0 mph - N/A   Clear
9:55 AM 30.2 °F 20.2 °F 21.2 °F 69% 30.28 in 10.0 mi East 12.7 mph - N/A   Clear
10:15 AM 32.0 °F 22.5 °F 21.2 °F 64% 30.27 in 10.0 mi East 12.7 mph - N/A   Clear
10:35 AM 32.0 °F 21.2 °F 21.2 °F 64% 30.26 in 10.0 mi East 16.1 mph - N/A   Clear
10:55 AM 32.0 °F 20.8 °F 21.2 °F 64% 30.23 in 10.0 mi East 17.3 mph - N/A   Clear
11:15 AM 32.0 °F 22.5 °F 21.2 °F 64% 30.22 in 10.0 mi East 12.7 mph - N/A   Clear
11:35 AM 32.0 °F 22.1 °F 21.2 °F 64% 30.21 in 10.0 mi ENE 13.8 mph - N/A   Scattered Clouds
12:15 PM 32.0 °F 20.5 °F 23.0 °F 69% 30.13 in 10.0 mi East 18.4 mph - N/A   Overcast
12:35 PM 32.0 °F 19.8 °F 23.0 °F 69% 30.10 in 10.0 mi East 20.7 mph 26.5 mph N/A   Mostly Cloudy
12:55 PM 33.8 °F 23.2 °F 23.0 °F 65% 30.10 in 10.0 mi East 17.3 mph - N/A   Mostly Cloudy
1:15 PM 32.0 °F 21.2 °F 23.0 °F 69% 30.08 in 10.0 mi East 16.1 mph 21.9 mph N/A   Mostly Cloudy
1:35 PM 32.0 °F 21.2 °F 23.0 °F 69% 30.07 in 10.0 mi ENE 16.1 mph - N/A Rain Light Rain
1:55 PM 32.0 °F 22.1 °F 24.8 °F 75% 30.08 in 10.0 mi ENE 13.8 mph - N/A Rain Light Rain
2:15 PM 32.0 °F 24.2 °F 26.6 °F 80% 30.10 in 5.0 mi NE 9.2 mph - 0.01 in Rain Rain
2:35 PM 32.0 °F 24.2 °F 26.6 °F 80% 30.12 in 7.0 mi NNE 9.2 mph - 0.02 in   Overcast
2:55 PM 32.0 °F 23.6 °F 26.6 °F 80% 30.13 in 5.0 mi NNE 10.4 mph - 0.02 in Snow Light Snow
3:15 PM 32.0 °F 27.5 °F 26.6 °F 80% 30.18 in 7.0 mi North 4.6 mph - 0.01 in Snow Light Snow
3:35 PM 32.0 °F 25.6 °F 28.4 °F 87% 30.17 in 1.2 mi NE 6.9 mph - 0.01 in Snow Light Snow
3:55 PM 32.0 °F 24.8 °F 30.2 °F 93% 30.15 in 0.8 mi NE 8.1 mph - 0.02 in Snow Light Snow
4:15 PM 32.0 °F 22.5 °F 30.2 °F 93% 30.14 in 1.8 mi NE 12.7 mph - N/A Snow Light Snow
4:35 PM 32.0 °F 21.6 °F 30.2 °F 93% 30.12 in 1.2 mi ENE 15.0 mph - 0.01 in Snow Light Snow
4:55 PM 32.0 °F 19.8 °F 30.2 °F 93% 30.07 in 1.0 mi ENE 20.7 mph 25.3 mph 0.03 in Snow Light Snow
5:15 PM 32.0 °F 19.5 °F 30.2 °F 93% 30.05 in 5.0 mi ENE 21.9 mph 25.3 mph N/A Snow Light Snow
5:35 PM 32.0 °F 19.8 °F 32.0 °F 100% 30.02 in 5.0 mi East 20.7 mph - 0.01 in   Overcast
5:55 PM 32.0 °F 19.5 °F 32.0 °F 100% 29.99 in 5.0 mi East 21.9 mph 26.5 mph 0.02 in   Overcast
6:15 PM 32.0 °F 20.8 °F 32.0 °F 100% 29.98 in 7.0 mi East 17.3 mph - 0.01 in   Overcast
6:35 PM 32.0 °F 21.6 °F 32.0 °F 100% 29.95 in 10.0 mi East 15.0 mph 20.7 mph 0.01 in   Overcast
6:55 PM 32.0 °F 20.8 °F 32.0 °F 100% 29.92 in 10.0 mi East 17.3 mph - 0.01 in   Overcast
7:15 PM 32.0 °F 21.6 °F 32.0 °F 100% 29.94 in 10.0 mi East 15.0 mph - N/A   Overcast
7:35 PM 32.0 °F 21.2 °F 32.0 °F 100% 29.93 in 10.0 mi East 16.1 mph - N/A   Overcast
7:55 PM 33.8 °F 24.3 °F 32.0 °F 93% 29.92 in 10.0 mi East 13.8 mph - N/A   Overcast
8:15 PM 33.8 °F 25.8 °F 32.0 °F 93% 29.93 in 7.0 mi East 10.4 mph - 0.01 in Rain Rain
8:35 PM 33.8 °F 27.7 °F 32.0 °F 93% 29.96 in 5.0 mi ESE 6.9 mph - 0.03 in Rain Light Rain
8:55 PM 33.8 °F 26.4 °F 32.0 °F 93% 29.96 in 5.0 mi ESE 9.2 mph - 0.05 in Rain Rain
9:15 PM 33.8 °F 27.0 °F 32.0 °F 93% 29.95 in 4.0 mi ESE 8.1 mph - 0.01 in Rain Light Rain
9:35 PM 33.8 °F 26.4 °F 32.0 °F 93% 29.93 in 7.0 mi ESE 9.2 mph - 0.01 in Rain Light Rain
9:55 PM 33.8 °F 27.0 °F 32.0 °F 93% 29.92 in 7.0 mi ESE 8.1 mph - 0.01 in   Drizzle
10:15 PM 33.8 °F 26.4 °F 32.0 °F 93% 29.89 in 7.0 mi ESE 9.2 mph - 0.01 in Rain Light Rain
10:35 PM 33.8 °F 26.4 °F 32.0 °F 93% 29.88 in 10.0 mi ESE 9.2 mph - 0.01 in   Overcast
10:55 PM 33.8 °F 27.0 °F 32.0 °F 93% 29.88 in 7.0 mi ESE 8.1 mph - 0.01 in Rain Light Rain
11:15 PM 33.8 °F 27.7 °F 32.0 °F 93% 29.86 in 10.0 mi ESE 6.9 mph - N/A   Overcast
11:35 PM 33.8 °F 27.7 °F 32.0 °F 93% 29.85 in 10.0 mi ESE 6.9 mph - N/A   Overcast
11:55 PM 33.8 °F 30.8 °F 32.0 °F 93% 29.86 in 7.0 mi ESE 3.5 mph - N/A   Overcast